Weather History for KJMR - August, 2014

Change the Weather History Date:

Sunday, August 10, 2014

  Actual Average Record
Temperature  
Mean Temperature 68 °F -  
Max Temperature 75 °F 79 °F 101 °F (1947)
Min Temperature 60 °F 50 °F 32 °F (1982)
Cooling Degree Days 2    
Growing Degree Days 18 (Base 50)    
Moisture  
Dew Point 62 °F    
Average Humidity 85    
Maximum Humidity 100    
Minimum Humidity 65    
Precipitation  
Precipitation 0.60 in - - ()
Sea Level Pressure  
Sea Level Pressure 30.06 in    
Wind  
Wind Speed 1 mph (East)    
Max Wind Speed 7 mph    
Max Gust Speed -    
Visibility 8 miles    
Events Rain    
Averages and records for this station are not official NWS values.
T = Trace of Precipitation, MM = Missing Value Source: NWS Daily Summary

Daily Weather History Graph

Daily Weather History Graph

Search for Another Location

Airport or City:

Trip Planner

Search our weather history database for the weather conditions in past years. The results will help you decide how hot, cold, wet, or windy it might be!

Date:

Astronomy

Aug. 10, 2014 Rise Set
Actual Time 6:06 AM CDT 8:29 PM CDT
Civil Twilight 5:33 AM CDT 9:02 PM CDT
Nautical Twilight 4:51 AM CDT 9:43 PM CDT
Astronomical Twilight 4:05 AM CDT 10:30 PM CDT
Moon 8:11 PM CDT (8/10) 6:02 AM CDT (8/10)
Length of Visible Light 15h 28m
Length of Day
14h 22m
Full, 100% of the Moon is Illuminated
Aug 10
Full
Aug 10
Full
Aug 17
Last Quarter
Aug 25
New
Sep 2
First Quarter

Hourly Weather History & Observations

Time (CDT) Temp. Dew Point Humidity Pressure Visibility Wind Dir Wind Speed Gust Speed Precip Events Conditions
12:13 AM 60.8 °F 59.0 °F 94% 30.10 in 7.0 mi Calm Calm - N/A   Clear
12:33 AM 60.8 °F 59.0 °F 94% 30.10 in 7.0 mi Calm Calm - N/A   Clear
12:53 AM 60.8 °F 60.8 °F 100% 30.09 in 10.0 mi Calm Calm - N/A   Clear
1:13 AM 60.8 °F 59.0 °F 94% 30.08 in 10.0 mi Calm Calm - N/A   Clear
1:33 AM 60.8 °F 59.0 °F 94% 30.09 in 10.0 mi Calm Calm - N/A   Clear
1:53 AM 60.8 °F 59.0 °F 94% 30.09 in 10.0 mi Calm Calm - N/A   Clear
2:13 AM 60.8 °F 59.0 °F 94% 30.08 in 10.0 mi Calm Calm - N/A   Clear
2:33 AM 60.8 °F 59.0 °F 94% 30.08 in 10.0 mi Calm Calm - N/A   Clear
2:53 AM 60.8 °F 59.0 °F 94% 30.08 in 10.0 mi Calm Calm - N/A   Clear
3:13 AM 60.8 °F 59.0 °F 94% 30.09 in 10.0 mi Calm Calm - N/A   Clear
3:33 AM 62.6 °F 59.0 °F 88% 30.09 in 10.0 mi Calm Calm - N/A   Clear
4:13 AM 62.6 °F 59.0 °F 88% 30.09 in 10.0 mi Calm Calm - N/A   Clear
4:33 AM 62.6 °F 59.0 °F 88% 30.09 in 10.0 mi Calm Calm - N/A   Clear
4:53 AM 64.4 °F 60.8 °F 88% 30.09 in 10.0 mi Calm Calm - N/A Rain Light Rain
5:13 AM 62.6 °F 59.0 °F 88% 30.09 in 10.0 mi Calm Calm - N/A Rain Light Rain
5:33 AM 62.6 °F 59.0 °F 88% 30.09 in 10.0 mi Calm Calm - N/A   Clear
5:53 AM 62.6 °F 59.0 °F 88% 30.09 in 10.0 mi Calm Calm - N/A   Mostly Cloudy
6:13 AM 62.6 °F 59.0 °F 88% 30.09 in 10.0 mi Calm Calm - N/A   Overcast
6:33 AM 62.6 °F 59.0 °F 88% 30.09 in 7.0 mi Calm Calm - N/A Rain Rain
7:13 AM 62.6 °F 60.8 °F 94% 30.10 in 7.0 mi Calm Calm - N/A   Scattered Clouds
7:33 AM 62.6 °F 60.8 °F 94% 30.10 in 7.0 mi Calm Calm - N/A   Scattered Clouds
7:53 AM 64.4 °F 62.6 °F 94% 30.10 in 7.0 mi Calm Calm - N/A   Scattered Clouds
8:13 AM 64.4 °F 62.6 °F 94% 30.10 in 7.0 mi Calm Calm - N/A   Scattered Clouds
8:33 AM 64.4 °F 60.8 °F 88% 30.10 in 10.0 mi Calm Calm - N/A   Mostly Cloudy
8:53 AM 64.4 °F 60.8 °F 88% 30.10 in 10.0 mi Calm Calm - N/A   Mostly Cloudy
9:13 AM 64.4 °F 60.8 °F 88% 30.09 in 10.0 mi Calm Calm - N/A   Scattered Clouds
9:33 AM 68.0 °F 60.8 °F 78% 30.09 in 10.0 mi ESE 4.6 mph - N/A   Clear
9:53 AM 69.8 °F 62.6 °F 78% 30.09 in 10.0 mi Calm Calm - N/A   Clear
10:13 AM 69.8 °F 62.6 °F 78% 30.08 in 10.0 mi SE 3.5 mph - N/A   Clear
10:33 AM 69.8 °F 62.6 °F 78% 30.09 in 10.0 mi Calm Calm - N/A   Scattered Clouds
10:53 AM 69.8 °F 62.6 °F 78% 30.08 in 10.0 mi East 4.6 mph - N/A   Scattered Clouds
11:13 AM 69.8 °F 62.6 °F 78% 30.09 in 10.0 mi Calm Calm - N/A   Mostly Cloudy
11:33 AM 71.6 °F 60.8 °F 69% 30.08 in 10.0 mi ESE 3.5 mph - N/A   Scattered Clouds
11:53 AM 71.6 °F 60.8 °F 69% 30.08 in 10.0 mi ESE 3.5 mph - N/A   Scattered Clouds
12:13 PM 73.4 °F 62.6 °F 69% 30.08 in 10.0 mi East 4.6 mph - N/A   Clear
12:33 PM 73.4 °F 62.6 °F 69% 30.07 in 10.0 mi Calm Calm - N/A   Clear
12:53 PM 73.4 °F 60.8 °F 65% 30.07 in 10.0 mi Calm Calm - N/A   Scattered Clouds
1:13 PM 73.4 °F 62.6 °F 69% 30.07 in 10.0 mi Calm Calm - N/A Rain Light Rain
1:33 PM 73.4 °F 62.6 °F 69% 30.06 in 10.0 mi Calm Calm - N/A   Mostly Cloudy
1:53 PM 73.4 °F 62.6 °F 69% 30.05 in 10.0 mi NNE 3.5 mph - N/A   Mostly Cloudy
2:13 PM 73.4 °F 64.4 °F 73% 30.05 in 10.0 mi Calm Calm - N/A   Mostly Cloudy
2:33 PM 73.4 °F 62.6 °F 69% 30.04 in 10.0 mi NNE 3.5 mph - N/A   Scattered Clouds
2:53 PM 73.4 °F 62.6 °F 69% 30.03 in 10.0 mi ENE 4.6 mph - N/A   Scattered Clouds
3:13 PM 75.2 °F 64.4 °F 69% 30.02 in 10.0 mi ENE 5.8 mph - N/A   Scattered Clouds
3:33 PM 75.2 °F 62.6 °F 65% 30.02 in 10.0 mi East 6.9 mph - N/A   Clear
3:53 PM 75.2 °F 64.4 °F 69% 30.02 in 10.0 mi East 3.5 mph - N/A   Scattered Clouds
4:13 PM 75.2 °F 62.6 °F 65% 30.02 in 10.0 mi ESE 5.8 mph - N/A   Mostly Cloudy
4:33 PM 73.4 °F 62.6 °F 69% 30.02 in 10.0 mi ESE 5.8 mph - N/A   Scattered Clouds
4:53 PM 73.4 °F 62.6 °F 69% 30.02 in 10.0 mi Calm Calm - N/A   Mostly Cloudy
5:33 PM 69.8 °F 62.6 °F 78% 30.02 in 10.0 mi Calm Calm - N/A Rain Light Rain
5:53 PM 69.8 °F 64.4 °F 83% 30.02 in 2.0 mi Calm Calm - 0.04 in Rain Heavy Rain
6:13 PM 68.0 °F 62.6 °F 83% 30.03 in 3.0 mi West 5.8 mph - 0.11 in Rain Rain
6:33 PM 66.2 °F 62.6 °F 88% 30.03 in 2.0 mi Calm Calm - 0.23 in Rain Heavy Rain
6:53 PM 66.2 °F 62.6 °F 88% 30.03 in 2.5 mi Calm Calm - 0.31 in Rain Rain
7:13 PM 64.4 °F 62.6 °F 94% 30.04 in 2.5 mi Calm Calm - 0.05 in Rain Rain
7:33 PM 64.4 °F 62.6 °F 94% 30.03 in 1.8 mi Calm Calm - 0.11 in Rain Rain
7:53 PM 64.4 °F 64.4 °F 100% 30.02 in - Calm Calm - 0.02 in   Unknown
8:13 PM 64.4 °F 64.4 °F 100% 30.02 in 4.0 mi Calm Calm - 0.06 in Rain Rain
8:33 PM 64.4 °F 62.6 °F 94% 30.02 in 5.0 mi East 3.5 mph - 0.08 in Rain Rain
8:53 PM 64.4 °F 62.6 °F 94% 30.01 in 5.0 mi Calm Calm - 0.10 in Rain Light Rain
9:13 PM 64.4 °F 62.6 °F 94% 30.01 in 4.0 mi Calm Calm - 0.02 in Rain Rain
9:33 PM 62.6 °F 62.6 °F 100% 30.01 in 4.0 mi Calm Calm - 0.04 in Rain Light Rain
9:53 PM 60.8 °F 60.8 °F 100% 30.02 in 4.0 mi Calm Calm - 0.04 in Rain Rain
10:13 PM 62.6 °F 60.8 °F 94% 30.02 in 5.0 mi Calm Calm - N/A   Light Drizzle
10:33 PM 62.6 °F 60.8 °F 94% 30.02 in 5.0 mi NE 4.6 mph - N/A   Mostly Cloudy
10:53 PM 62.6 °F 62.6 °F 100% 30.01 in 7.0 mi Calm Calm - N/A   Scattered Clouds
11:13 PM 62.6 °F 62.6 °F 100% 30.01 in 7.0 mi Calm Calm - N/A   Scattered Clouds
11:33 PM 64.4 °F 64.4 °F 100% 30.01 in 7.0 mi Calm Calm - N/A   Scattered Clouds
11:53 PM 64.4 °F 64.4 °F 100% - 7.0 mi Calm Calm - N/A   Mostly Cloudy